TimeEDT,TemperatureF,Dew PointF,Humidity,Sea Level PressureIn,VisibilityMPH,Wind Direction,Wind SpeedMPH,Gust SpeedMPH,PrecipitationIn,Events,Conditions,WindDirDegrees,DateUTC
12:53 AM,39.0,33.1,79,29.67,10.0,NW,11.5,-,N/A,,Overcast,310,2012-11-01 04:53:00
1:53 AM,39.0,33.1,79,29.67,10.0,NW,12.7,21.9,N/A,,Overcast,310,2012-11-01 05:53:00
2:04 AM,39.2,33.8,81,29.64,10.0,NW,15.0,21.9,N/A,,Overcast,310,2012-11-01 06:04:00
2:53 AM,37.9,34.0,86,29.67,10.0,NW,12.7,18.4,N/A,,Overcast,320,2012-11-01 06:53:00
3:53 AM,37.9,36.0,93,29.67,4.0,NW,6.9,-,N/A,,Overcast,310,2012-11-01 07:53:00
4:22 AM,39.2,35.6,87,29.63,4.0,NW,10.4,19.6,N/A,,Overcast,310,2012-11-01 08:22:00
4:53 AM,39.0,36.0,89,29.66,10.0,WNW,13.8,-,N/A,,Overcast,300,2012-11-01 08:53:00
5:53 AM,39.0,36.0,89,29.67,6.0,WNW,11.5,-,N/A,,Overcast,300,2012-11-01 09:53:00
6:53 AM,37.9,35.1,89,29.67,6.0,NW,12.7,20.7,N/A,,Overcast,310,2012-11-01 10:53:00
7:53 AM,37.0,35.1,93,29.69,10.0,NW,9.2,-,0.02,Rain,Light Rain,310,2012-11-01 11:53:00
8:53 AM,37.0,34.0,89,29.70,5.0,WNW,10.4,-,0.01,Rain,Light Rain,300,2012-11-01 12:53:00
9:53 AM,37.0,35.1,93,29.71,10.0,WNW,10.4,17.3,0.02,,Overcast,300,2012-11-01 13:53:00
10:31 AM,37.4,35.6,93,29.69,10.0,WNW,9.2,-,0.00,,Overcast,290,2012-11-01 14:31:00
10:39 AM,37.4,35.6,93,29.69,10.0,WNW,11.5,18.4,0.00,,Overcast,290,2012-11-01 14:39:00
10:53 AM,37.9,35.1,89,29.72,10.0,NW,10.4,-,0.00,,Overcast,310,2012-11-01 14:53:00
11:09 AM,39.2,33.8,81,29.69,10.0,WNW,13.8,25.3,N/A,,Mostly Cloudy,300,2012-11-01 15:09:00
11:53 AM,39.9,34.0,79,29.72,10.0,WNW,9.2,21.9,0.00,,Overcast,300,2012-11-01 15:53:00
12:10 PM,39.2,35.6,87,29.69,10.0,WNW,16.1,23.0,0.00,Rain,Light Rain,300,2012-11-01 16:10:00
12:23 PM,41.0,35.6,81,29.69,10.0,WNW,13.8,-,0.00,,Mostly Cloudy,290,2012-11-01 16:23:00
12:53 PM,41.0,34.0,76,29.72,10.0,NW,11.5,21.9,0.00,Rain,Light Rain,310,2012-11-01 16:53:00
1:21 PM,42.8,32.0,66,29.69,10.0,NW,16.1,23.0,N/A,,Mostly Cloudy,320,2012-11-01 17:21:00
1:53 PM,43.0,30.0,60,29.71,10.0,NW,18.4,24.2,N/A,,Overcast,310,2012-11-01 17:53:00
2:53 PM,42.1,28.9,60,29.71,10.0,NW,17.3,24.2,N/A,,Overcast,310,2012-11-01 18:53:00
3:53 PM,41.0,28.9,62,29.72,10.0,NW,15.0,-,N/A,,Overcast,310,2012-11-01 19:53:00
4:53 PM,41.0,28.0,60,29.73,10.0,WNW,12.7,24.2,N/A,,Overcast,300,2012-11-01 20:53:00
5:53 PM,41.0,27.0,57,29.74,10.0,NW,16.1,21.9,N/A,,Overcast,310,2012-11-01 21:53:00
6:53 PM,39.9,28.9,65,29.75,10.0,NNW,11.5,26.5,N/A,,Overcast,330,2012-11-01 22:53:00
7:53 PM,37.0,30.9,79,29.78,10.0,NW,8.1,-,0.00,,Overcast,310,2012-11-01 23:53:00
8:15 PM,37.4,30.2,75,29.74,10.0,NW,8.1,-,N/A,,Overcast,310,2012-11-02 00:15:00
8:53 PM,36.0,32.0,86,29.78,9.0,NW,10.4,-,0.00,Snow,Light Snow,310,2012-11-02 00:53:00
9:40 PM,35.6,33.8,93,29.76,10.0,WNW,6.9,-,0.00,,Overcast,300,2012-11-02 01:40:00
9:53 PM,36.0,33.1,89,29.79,10.0,WNW,9.2,-,0.00,,Overcast,300,2012-11-02 01:53:00
10:16 PM,35.6,32.0,87,29.76,10.0,NW,9.2,-,N/A,,Overcast,320,2012-11-02 02:16:00
10:53 PM,36.0,30.9,82,29.80,10.0,NW,9.2,-,N/A,,Overcast,320,2012-11-02 02:53:00
11:53 PM,36.0,30.0,79,29.80,9.0,NNW,9.2,-,0.00,,Overcast,330,2012-11-02 03:53:00